GW0503 Weather Reports


Display with metric or nautical units.
time (UTC)temp
F
wind
direction
speed
MPH
gust
MPH
rain 1hr
in
rain 24hr
in
rain mn
in
humidity
%
barometer
mb
20260508173100 59 51 10.0 16.0 0.00 1.12 0.00 52 1001.1
20260508171557 59 49 10.0 17.0 0.00 1.12 0.00 52 1001.3
20260508170057 59 14 8.0 17.0 0.00 1.12 0.00 51 1001.4
20260508164600 58 41 8.0 15.0 0.00 1.12 0.00 56 1001.3
20260508163056 57 64 5.0 17.0 0.00 1.12 0.00 58 1001.2
20260508161557 57 30 8.0 13.0 0.00 1.12 0.00 58 1001.4
20260508160057 56 37 6.0 15.0 0.00 1.12 0.00 60 1001.4
20260508154604 57 32 9.0 17.0 0.00 1.12 0.00 58 1001.5
20260508153059 57 26 10.0 17.0 0.00 1.12 0.00 57 1001.4
20260508151556 57 42 8.0 20.0 0.00 1.12 0.00 60 1001.5
20260508150057 57 45 6.0 16.0 0.00 1.12 0.00 56 1001.4
20260508144558 58 26 10.0 18.0 0.00 1.12 0.00 60 1001.6
20260508143102 57 97 6.0 15.0 0.00 1.12 0.00 65 1001.7
20260508141616 55 22 8.0 14.0 0.00 1.12 0.00 66 1001.9
20260508140056 56 33 7.0 14.0 0.00 1.12 0.00 64 1002.2
20260508134618 56 70 4.0 12.0 0.00 1.12 0.00 74 1002.3
20260508133100 55 64 6.0 13.0 0.00 1.12 0.00 72 1002.5
20260508131600 54 33 7.0 15.0 0.00 1.12 0.00 79 1002.2
20260508130057 52 357 5.0 10.0 0.00 1.12 0.00 90 1002.1
20260508124602 50 86 3.0 8.0 0.00 1.12 0.00 97 1002.2
20260508123057 48 149 3.0 8.0 0.00 1.12 0.00 98 1001.9
20260508121602 48 142 5.0 8.0 0.00 1.12 0.00 98 1002.2
20260508120056 47 143 4.0 7.0 0.00 1.12 0.00 99 1002.4
20260508114555 46 189 0.0 3.0 0.00 1.16 0.00 100 1002.7
20260508113107 45 197 2.0 4.0 0.00 1.16 0.00 100 1002.6
20260508111603 43 0 0.0 3.0 0.00 1.16 0.00 100 1002.6
20260508110101 43 349 1.0 3.0 0.00 1.16 0.00 99 1002.9
20260508104600 43 0 0.0 2.0 0.00 1.20 0.00 99 1003.1
20260508103102 43 0 0.0 2.0 0.00 1.20 0.00 99 1002.9
20260508101557 43 290 1.0 3.0 0.00 1.20 0.00 99 1002.9
20260508100057 42 0 0.0 1.0 0.00 1.20 0.00 100 1002.7
20260508094600 42 0 0.0 4.0 0.00 1.21 0.00 99 1002.5
20260508093059 42 18 2.0 5.0 0.00 1.21 0.00 99 1002.5
20260508091557 42 26 3.0 5.0 0.00 1.21 0.00 99 1002.1
20260508090104 41 351 2.0 3.0 0.00 1.21 0.00 99 1002.4
20260508084559 41 14 2.0 3.0 0.00 1.21 0.00 99 1002.4
20260508083117 42 14 1.0 4.0 0.00 1.21 0.00 99 1001.8
20260508081605 43 35 2.0 4.0 0.00 1.21 0.00 99 1001.5
20260508074601 43 152 1.0 2.0 0.00 1.21 0.00 99 1001.5
20260508073056 43 0 0.0 2.0 0.00 1.21 0.00 98 1001.4
20260508071557 44 251 1.0 3.0 0.00 1.21 0.00 99 1001.4
20260508070059 45 0 0.0 4.0 0.00 1.21 0.00 99 1001.6
20260508064558 45 303 3.0 8.0 0.00 1.22 0.00 99 1001.5
20260508063058 46 288 1.0 5.0 0.00 1.22 0.00 99 1001.6
20260508061601 46 326 2.0 4.0 0.00 1.22 0.00 99 1001.7
20260508060056 46 0 0.0 2.0 0.00 1.22 0.00 99 1001.6
20260508054558 46 315 1.0 5.0 0.00 1.23 0.00 99 1001.6
20260508053057 47 299 3.0 7.0 0.00 1.23 0.00 99 1001.6
20260508051556 47 313 3.0 8.0 0.00 1.23 0.00 99 1001.5
20260508050056 47 316 2.0 3.0 0.00 1.23 0.00 99 1001.7
20260508044555 48 0 0.0 2.0 0.00 1.23 0.00 99 1001.6
20260508043107 48 4 1.0 4.0 0.00 1.23 0.00 99 1001.7
20260508041555 48 211 1.0 3.0 0.00 1.23 0.00 99 1001.7
20260508040057 48 211 2.0 4.0 0.00 1.23 0.00 99 1001.6
20260508034558 49 211 1.0 3.0 0.00 1.23 0.00 99 1001.9
20260508033058 49 211 1.0 3.0 0.00 1.23 0.00 99 1001.9
20260508031558 49 0 0.0 8.0 0.00 1.23 0.00 99 1001.9
20260508030057 49 174 0.0 6.0 0.00 1.23 0.00 99 1002.1
20260508024559 49 0 1.0 4.0 0.00 1.23 1.23 99 1002.1
20260508023059 49 60 0.0 5.0 0.00 1.23 1.23 99 1002.1
20260508021556 49 253 1.0 4.0 0.00 1.23 1.23 99 1002.1
20260508020057 49 112 2.0 6.0 0.00 1.23 1.23 99 1002.2
20260508014557 49 125 0.0 3.0 0.00 1.23 1.23 99 1001.9
20260508013059 50 138 1.0 3.0 0.00 1.23 1.23 99 1001.7
20260508011556 49 126 1.0 4.0 0.00 1.23 1.23 99 1001.6
20260508010057 50 294 0.0 2.0 0.00 1.23 1.23 99 1001.6
20260508004610 50 0 1.0 3.0 0.00 1.23 1.23 99 1001.8
20260508003056 50 276 1.0 4.0 0.00 1.23 1.23 99 1002.1
20260508001557 50 145 2.0 8.0 0.00 1.23 1.23 99 1002.2
20260508000057 50 137 3.0 7.0 0.00 1.23 1.23 99 1002.2
20260507234600 50 147 2.0 4.0 0.00 1.23 1.23 99 1002.3
20260507233055 51 173 1.0 4.0 0.00 1.23 1.23 99 1002.3
20260507231650 51 173 1.0 8.0 0.00 1.23 1.23 99 1002.2
20260507230105 51 162 5.0 15.0 0.00 1.23 1.23 99 1002.3
20260507224556 51 147 5.0 12.0 0.00 1.23 1.23 99 1002.3
20260507223100 51 151 7.0 12.0 0.00 1.23 1.23 98 1002.3
20260507221557 51 146 3.0 10.0 0.00 1.23 1.23 98 1002.4
20260507220057 51 124 5.0 11.0 0.01 1.23 1.23 99 1002.7
20260507214618 51 101 5.0 12.0 0.01 1.23 1.23 98 1002.8
20260507213108 51 149 7.0 12.0 0.02 1.23 1.23 99 1003.0
20260507211620 51 159 5.0 12.0 0.05 1.23 1.23 99 1002.7
20260507210057 51 177 4.0 9.0 0.09 1.22 1.22 98 1002.4
20260507204607 51 128 6.0 12.0 0.17 1.22 1.22 98 1002.2
20260507203101 51 136 5.0 12.0 0.25 1.21 1.21 98 1002.8
20260507201608 51 82 6.0 15.0 0.35 1.17 1.17 98 1003.1
20260507200059 51 164 3.0 7.0 0.41 1.13 1.13 98 1003.4
20260507194633 51 117 4.0 11.0 0.45 1.04 1.04 98 1004.1
20260507193056 52 148 7.0 15.0 0.49 0.96 0.96 97 1004.6
20260507191601 52 145 6.0 11.0 0.51 0.83 0.83 97 1004.9
20260507190057 52 149 10.0 22.0 0.52 0.72 0.72 96 1004.8
20260507184607 53 187 12.0 25.0 0.46 0.60 0.60 96 1004.9
20260507183101 53 209 11.0 20.0 0.33 0.47 0.47 96 1005.3
20260507181556 54 180 11.0 20.0 0.20 0.32 0.32 96 1005.5
20260507180106 55 195 8.0 19.0 0.07 0.18 0.18 96 1005.0
20260507174557 54 183 5.0 16.0 0.03 0.14 0.14 96 1004.8